This is the latest recevied weather packets stored in our database for station/object I1SXT-13. If no packets are shown the sender has not sent any weather packets the latest 10 day(s).
| Time | Temp. | Humidity | Pressure | Rain* | Wind** | Luminosity | Snow |
|---|---|---|---|---|---|---|---|
| 1778068767 | 18.33° C | 77% | 1009.9 hPa | 33.02 mm | - | - | - |
| 1778068463 | 18.89° C | 78% | 1009.9 hPa | 33.02 mm | - | - | - |
| 1778068166 | 18.89° C | 76% | 1010.4 hPa | 33.02 mm | - | - | - |
| 1778067869 | 19.44° C | 79% | 1009.4 hPa | 33.02 mm | - | - | - |
| 1778067565 | 19.44° C | 79% | 1009.8 hPa | 33.02 mm | - | - | - |
| 1778066964 | 18.89° C | 82% | 1009.7 hPa | 33.02 mm | - | - | - |
| 1778066666 | 18.89° C | 79% | 1010 hPa | 33.02 mm | - | - | - |
| 1778066369 | 18.89° C | 78% | 1010.1 hPa | 33.02 mm | - | - | - |
| 1778066065 | 18.89° C | 79% | 1010 hPa | 33.02 mm | - | - | - |
| 1778065768 | 18.33° C | 80% | 1010.6 hPa | 33.02 mm | - | - | - |
| 1778065464 | 17.78° C | 83% | 1009.8 hPa | 33.02 mm | - | - | - |
| 1778065167 | 17.22° C | 85% | 1010.4 hPa | 33.02 mm | - | - | - |
| 1778064870 | 17.22° C | 85% | 1010.5 hPa | 33.02 mm | - | - | - |
| 1778064565 | 17.22° C | 85% | 1009.8 hPa | 33.02 mm | - | - | - |
| 1778064268 | 17.22° C | 85% | 1009.7 hPa | 33.02 mm | - | - | - |
| 1778063667 | 17.22° C | 84% | 1009.7 hPa | 33.02 mm | - | - | - |
| 1778063370 | 17.22° C | 85% | 1010.2 hPa | 33.02 mm | - | - | - |
| 1778063066 | 17.22° C | 86% | 1009.7 hPa | 33.02 mm | - | - | - |
| 1778062769 | 17.78° C | 86% | 1010.3 hPa | 33.02 mm | - | - | - |
| 1778062464 | 17.78° C | 85% | 1010.1 hPa | 33.02 mm | - | - | - |
| 1778062167 | 18.33° C | 85% | 1009.9 hPa | 33.02 mm | - | - | - |
| 1778061870 | 18.33° C | 86% | 1009.7 hPa | 33.02 mm | - | - | - |
| 1778061566 | 17.78° C | 88% | 1009.6 hPa | 33.02 mm | - | - | - |
| 1778061269 | 17.22° C | 89% | 1010 hPa | 33.02 mm | - | - | - |
| 1778060965 | 17.22° C | 92% | 1009.9 hPa | 33.02 mm | - | - | - |
* Rain since midnight (hover to see other rain measurements)
** Current wind speed in m/s (hover to see current wind gust speed)